カタログに戻る

SUPERBIRD 4

運用中通信GEO
NORAD 26095·PAYLOAD·🇯🇵 Japan

打ち上げ Feb 18, 2000 から Guiana Space Centre

Loading…

TLE

最新Source: Space-Track

元期: Sep 14, 2026, 13:28 UTC

1 26095U 00012A   26257.56173100 -.00000228  00000-0  00000-0 0  9993
2 26095   8.5039  63.6496 0018256 154.0601 148.0334  0.98853981 45656

AllMySatでSUPERBIRD 4をリアルタイム追跡

Download on the App Store